Hourly Weather Rucheyki

Today, 21 April, Wednesday

Time Temperature Precipitation Wind Pressure Humidity
00:00 +2°C° 0 mm 2 mps 736 mmHg 95%
01:00 +2°C° 0 mm 2 mps 735 mmHg 96%
02:00 +2°C° 0 mm 2 mps 735 mmHg 97%
03:00 +2°C° 0.1 mm 2 mps 734 mmHg 97%
04:00 +2°C° 0.1 mm 2 mps 733 mmHg 98%
05:00 +2°C° 0.1 mm 2 mps 733 mmHg 98%
06:00 +2°C° 0.1 mm 2 mps 733 mmHg 97%
07:00 +2°C° 0.1 mm 2 mps 732 mmHg 96%
08:00 +1°C° 0.1 mm 3 mps 732 mmHg 95%
09:00 +2°C° 0 mm 3 mps 733 mmHg 90%
10:00 +3°C° 0 mm 3 mps 733 mmHg 85%
11:00 +3°C° 0 mm 3 mps 733 mmHg 80%
12:00 +4°C° 0 mm 3 mps 733 mmHg 78%
13:00 +5°C° 0 mm 3 mps 733 mmHg 77%
14:00 +5°C° 0 mm 3 mps 734 mmHg 75%
15:00 +5°C° 0.1 mm 3 mps 734 mmHg 76%
16:00 +7°C° 0.1 mm 3 mps 734 mmHg 77%
17:00 +7°C° 0.1 mm 2 mps 734 mmHg 78%
18:00 +6°C° 0 mm 2 mps 735 mmHg 82%
19:00 +5°C° 0 mm 2 mps 735 mmHg 86%
20:00 +4°C° 0 mm 2 mps 735 mmHg 90%
21:00 +4°C° 0 mm 2 mps 735 mmHg 91%
22:00 +3°C° 0 mm 3 mps 736 mmHg 92%
23:00 +2°C° 0 mm 3 mps 736 mmHg 93%

Tomorrow, 22 April, Thursday

Time Temperature Precipitation Wind Pressure Humidity
00:00 +2°C° 0 mm 3 mps 736 mmHg 94%
01:00 +2°C° 0 mm 3 mps 736 mmHg 94%
02:00 +1°C° 0 mm 3 mps 736 mmHg 95%
03:00 +1°C° 0 mm 3 mps 736 mmHg 95%
04:00 +1°C° 0 mm 3 mps 736 mmHg 96%
05:00 +2°C° 0 mm 3 mps 736 mmHg 97%
06:00 +3°C° 0 mm 4 mps 737 mmHg 94%
07:00 +4°C° 0 mm 4 mps 737 mmHg 91%
08:00 +5°C° 0 mm 4 mps 737 mmHg 88%
09:00 +7°C° 0 mm 4 mps 737 mmHg 83%
10:00 +8°C° 0 mm 4 mps 738 mmHg 78%
11:00 +10°C° 0 mm 4 mps 738 mmHg 73%
12:00 +11°C° 0.3 mm 4 mps 738 mmHg 71%
13:00 +10°C° 0.3 mm 5 mps 738 mmHg 70%
14:00 +12°C° 0.3 mm 5 mps 737 mmHg 68%
15:00 +12°C° 0.5 mm 5 mps 737 mmHg 70%
16:00 +12°C° 0.5 mm 5 mps 737 mmHg 71%
17:00 +12°C° 0.5 mm 5 mps 737 mmHg 73%
18:00 +11°C° 0.2 mm 4 mps 737 mmHg 78%
19:00 +8°C° 0.2 mm 4 mps 737 mmHg 84%
20:00 +8°C° 0.2 mm 3 mps 737 mmHg 90%
21:00 +8°C° 0 mm 3 mps 737 mmHg 90%
22:00 +6°C° 0 mm 4 mps 737 mmHg 91%
23:00 +6°C° 0 mm 4 mps 736 mmHg 91%

Day after tomorrow, 23 April, Friday

Time Temperature Precipitation Wind Pressure Humidity
00:00 +6°C° 0.1 mm 4 mps 736 mmHg 92%
01:00 +6°C° 0.1 mm 4 mps 736 mmHg 93%
02:00 +6°C° 0.1 mm 4 mps 736 mmHg 93%
03:00 +6°C° 0.1 mm 4 mps 736 mmHg 93%
04:00 +7°C° 0.1 mm 3 mps 736 mmHg 94%
05:00 +7°C° 0.1 mm 3 mps 737 mmHg 94%
06:00 +5°C° 0.4 mm 3 mps 737 mmHg 93%
07:00 +5°C° 0.4 mm 4 mps 737 mmHg 93%
08:00 +4°C° 0.4 mm 4 mps 738 mmHg 93%
09:00 +4°C° 0.8 mm 4 mps 738 mmHg 90%
10:00 +4°C° 0.8 mm 3 mps 738 mmHg 86%
11:00 +4°C° 0.8 mm 3 mps 738 mmHg 83%
12:00 +7°C° 0 mm 3 mps 738 mmHg 75%
13:00 +8°C° 0 mm 3 mps 738 mmHg 66%
14:00 +9°C° 0 mm 3 mps 738 mmHg 58%
15:00 +9°C° 0 mm 3 mps 738 mmHg 60%
16:00 +8°C° 0 mm 2 mps 738 mmHg 63%
17:00 +8°C° 0 mm 2 mps 738 mmHg 66%
18:00 +7°C° 0 mm 2 mps 738 mmHg 70%
19:00 +6°C° 0 mm 2 mps 737 mmHg 74%
20:00 +7°C° 0 mm 1 mps 737 mmHg 79%
21:00 +6°C° 0.1 mm 1 mps 737 mmHg 79%
22:00 +5°C° 0.1 mm 2 mps 737 mmHg 80%
23:00 +5°C° 0.1 mm 2 mps 736 mmHg 81%

24 April, Saturday

Time Temperature Precipitation Wind Pressure Humidity
00:00 +5°C° 0.1 mm 1 mps 736 mmHg 83%
01:00 +5°C° 0.1 mm 1 mps 736 mmHg 85%
02:00 +5°C° 0.1 mm 1 mps 735 mmHg 88%
03:00 +5°C° 0.2 mm 1 mps 735 mmHg 88%
04:00 +3°C° 0.2 mm 2 mps 735 mmHg 87%
05:00 +3°C° 0.2 mm 2 mps 735 mmHg 87%
06:00 +3°C° 0.1 mm 2 mps 734 mmHg 83%
07:00 +3°C° 0.1 mm 3 mps 734 mmHg 78%
08:00 +3°C° 0.1 mm 3 mps 734 mmHg 74%
09:00 +4°C° 0 mm 3 mps 734 mmHg 67%
10:00 +5°C° 0 mm 3 mps 734 mmHg 60%
11:00 +5°C° 0 mm 3 mps 734 mmHg 54%
12:00 +6°C° 0.1 mm 4 mps 734 mmHg 51%
13:00 +6°C° 0.1 mm 4 mps 734 mmHg 49%
14:00 +6°C° 0.1 mm 4 mps 734 mmHg 46%
15:00 +6°C° 0.2 mm 4 mps 734 mmHg 51%
16:00 +6°C° 0.2 mm 4 mps 734 mmHg 55%
17:00 +5°C° 0.2 mm 4 mps 734 mmHg 59%
18:00 +4°C° 0 mm 4 mps 734 mmHg 65%
19:00 +3°C° 0 mm 4 mps 734 mmHg 71%
20:00 0°C° 0 mm 4 mps 734 mmHg 77%
21:00 0°C° 0 mm 4 mps 734 mmHg 81%
22:00 0°C° 0 mm 4 mps 734 mmHg 84%
23:00 -1°C° 0 mm 4 mps 734 mmHg 87%

25 April, Sunday

Time Temperature Precipitation Wind Pressure Humidity
00:00 -1°C° 0 mm 4 mps 734 mmHg 89%
01:00 -1°C° 0 mm 4 mps 734 mmHg 92%
02:00 -1°C° 0 mm 4 mps 734 mmHg 94%
03:00 -1°C° 0 mm 4 mps 734 mmHg 92%
04:00 -1°C° 0 mm 4 mps 734 mmHg 90%
05:00 -1°C° 0 mm 4 mps 734 mmHg 88%
06:00 -1°C° 0 mm 5 mps 734 mmHg 83%
07:00 -1°C° 0 mm 5 mps 734 mmHg 78%
08:00 -1°C° 0 mm 5 mps 734 mmHg 73%
09:00 0°C° 0 mm 5 mps 734 mmHg 72%
10:00 0°C° 0 mm 5 mps 734 mmHg 70%
11:00 +1°C° 0 mm 5 mps 734 mmHg 69%
12:00 +1°C° 0.2 mm 6 mps 734 mmHg 69%
13:00 +2°C° 0.2 mm 6 mps 734 mmHg 70%
14:00 +2°C° 0.2 mm 6 mps 734 mmHg 70%
15:00 +2°C° 0.3 mm 6 mps 734 mmHg 72%
16:00 +2°C° 0.3 mm 6 mps 734 mmHg 73%
17:00 +2°C° 0.3 mm 5 mps 734 mmHg 74%
18:00 +1°C° 0.1 mm 4 mps 734 mmHg 78%
19:00 0°C° 0.1 mm 4 mps 734 mmHg 82%
20:00 0°C° 0.1 mm 3 mps 734 mmHg 85%
21:00 0°C° 0 mm 3 mps 734 mmHg 87%
22:00 -1°C° 0 mm 3 mps 734 mmHg 89%
23:00 -1°C° 0 mm 3 mps 734 mmHg 91%

26 April, Monday

Time Temperature Precipitation Wind Pressure Humidity
00:00 -1°C° 0 mm 3 mps 734 mmHg 92%
01:00 -3°C° 0 mm 4 mps 734 mmHg 93%
02:00 -3°C° 0 mm 4 mps 734 mmHg 93%
03:00 -3°C° 0 mm 4 mps 734 mmHg 93%
04:00 -2°C° 0 mm 4 mps 734 mmHg 93%
05:00 -2°C° 0 mm 4 mps 733 mmHg 92%
06:00 -1°C° 0 mm 4 mps 733 mmHg 88%
07:00 -1°C° 0 mm 5 mps 733 mmHg 84%
08:00 0°C° 0 mm 5 mps 733 mmHg 80%
09:00 0°C° 0.1 mm 5 mps 733 mmHg 79%
10:00 +1°C° 0.1 mm 6 mps 733 mmHg 79%
11:00 +1°C° 0.1 mm 6 mps 733 mmHg 78%
12:00 +1°C° 0.4 mm 6 mps 733 mmHg 83%
13:00 -1°C° 0.4 mm 6 mps 733 mmHg 87%
14:00 0°C° 0.4 mm 5 mps 733 mmHg 92%
15:00 0°C° 0.7 mm 5 mps 733 mmHg 94%
16:00 0°C° 0.7 mm 5 mps 733 mmHg 95%
17:00 -1°C° 0.7 mm 4 mps 733 mmHg 97%
18:00 0°C° 0.3 mm 4 mps 733 mmHg 97%
19:00 0°C° 0.3 mm 5 mps 733 mmHg 97%
20:00 +1°C° 0.3 mm 5 mps 733 mmHg 97%
21:00 +1°C° 0 mm 5 mps 734 mmHg 97%
22:00 0°C° 0 mm 4 mps 734 mmHg 97%
23:00 0°C° 0 mm 4 mps 734 mmHg 97%
Show more